Flag for Germany Weather past 2 weeks in Landsberg am Lech, Bavaria, Germany

Now
72 °F

Passing clouds.


Feels Like: 77 °F
Forecast: 57 / 78 °F
Wind: 6 mph from Northwest

Location: Landsberg

Current Time: Jun 3, 2015 at 10:14:58 PM

Latest Report: Jun 3, 2015 at 9:20 PM


Visibility: N/A

Pressure: 30.24 "Hg

Humidity: 47%

Dew point: 50 °F

Location of Landsberg am LechLocation

Historic Weather in Landsberg am Lech — Graph

°F

Landsberg am Lech temperature yesterday

Maximum temperature yesterday: 75 °F (at 4:20 PM)
Minimum temperature yesterday: 55 °F (at 4:20 AM)
Average temperature yesterday: 66 °F

Past Weeks' High & Low Weather Summary

 TemperatureHumidityPressure
High81 °F (Jun 3, 6:20 PM)100% (May 19, 11:20 PM)30.30 "Hg (May 19, 11:20 PM)
Low37 °F (May 28, 3:20 AM)26% (May 28, 5:20 PM)29.83 "Hg (May 29, 6:20 PM)
Average55 °F73%30.07 "Hg
* Reported May 19 8:20 PM — Jun 3 8:20 PM, Landsberg am Lech, Weather by CustomWeather, © 2015

Note: Actual official high and low records may vary slightly from our data, if they occured in-between our weather recording intervals... More about our weather records

Advertising

Landsberg am Lech weather history for previous 24 hours

 ConditionsComfort  
Time TempWeatherWind HumidityBarometerVisibility
8:20 PM
Wed, Jun 3
73 °FPartly sunny.7 mph44%30.21 "HgN/A
7:20 PM79 °FScattered clouds.7 mph37%30.21 "HgN/A
6:20 PM81 °FPassing clouds.8 mph32%30.21 "HgN/A
5:20 PM79 °FPassing clouds.15 mph32%30.21 "HgN/A
4:20 PM79 °FPassing clouds.14 mph37%30.21 "HgN/A
3:20 PM79 °FPassing clouds.14 mph39%30.21 "HgN/A
2:20 PM79 °FPassing clouds.12 mph39%30.21 "HgN/A
1:20 PM77 °FPassing clouds.14 mph42%30.21 "HgN/A
12:20 PM77 °FPassing clouds.15 mph42%30.21 "HgN/A
11:20 AM77 °FPassing clouds.12 mph42%30.21 "HgN/A
10:20 AM75 °FPassing clouds.10 mph44%30.21 "HgN/A
9:20 AM72 °FPassing clouds.7 mph53%30.21 "HgN/A
8:20 AM68 °FPassing clouds.7 mph64%30.21 "HgN/A
7:20 AM64 °FPassing clouds.6 mph73%30.21 "HgN/A
6:20 AM59 °FPassing clouds.7 mph82%30.18 "HgN/A
5:20 AM57 °FPassing clouds.8 mph88%30.18 "HgN/A
4:20 AM57 °FPassing clouds.8 mph88%30.18 "HgN/A
3:20 AM59 °FPassing clouds.3 mph82%30.18 "HgN/A
2:20 AM59 °FPassing clouds.5 mph82%30.15 "HgN/A
1:20 AM59 °FPassing clouds.5 mph82%30.15 "HgN/A
12:20 AM61 °FPassing clouds.7 mph77%30.15 "HgN/A
11:20 PM
Tue, Jun 2
61 °FPassing clouds.8 mph77%30.15 "HgN/A
10:20 PM63 °FPassing clouds.6 mph77%30.15 "HgN/A
Weather by CustomWeather, © 2015

See weather overviewHow to use our weather pages